Weather History for Randolph AFB, TX

Change the Weather History Date:

Friday, December 2, 2011

  Actual Average Record
Temperature  
Mean Temperature 61 °F -  
Max Temperature 63 °F 64 °F 84 °F (2007)
Min Temperature 59 °F 46 °F 30 °F (2008)
Degree Days  
Heating Degree Days 4    
Growing Degree Days 11 (Base 50)    
Moisture  
Dew Point 62 °F    
Average Humidity 98    
Maximum Humidity 100    
Minimum Humidity 88    
Precipitation  
Precipitation 0.26 in - - ()
Sea Level Pressure  
Sea Level Pressure 30.16 in    
Wind  
Wind Speed 8 mph (East)    
Max Wind Speed 16 mph    
Max Gust Speed -    
Visibility 9 miles    
Events Rain    
Averages and records for this station are not official NWS values.
T = Trace of Precipitation, MM = Missing Value Source: NWS Daily Summary

Daily Weather History Graph

Daily Weather History Graph

Search for Another Location

Airport:

Trip Planner

Search our weather history database for the weather conditions in past years. The results will help you decide how hot, cold, wet, or windy it might be!

Date:

Astronomy

Dec. 02, 2011 Rise Set
Actual Time 7:10 AM CST 5:33 PM CST
Civil Twilight 6:45 AM CST 5:59 PM CST
Nautical Twilight 6:15 AM CST 6:29 PM CST
Astronomical Twilight 5:46 AM CST 6:58 PM CST
Moon 12:46 PM CST (12/2) 12:12 AM CST (12/2)
Length of Visible Light 11h 14m
Length of Day
10h 22m
First Quarter, 53% of the Moon is Illuminated
Dec 2
First Quarter
Dec 10
Full
Dec 17
Last Quarter
Dec 24
New
Jan 1
First Quarter

Hourly Weather History & Observations

Time (CST) Temp. Dew Point Humidity Pressure Visibility Wind Dir Wind Speed Gust Speed Precip Events Conditions
12:55 AM 60.1 °F 59.7 °F 99% 30.17 in 10.0 mi ENE 5.8 mph - N/A   Partly Cloudy
1:13 AM 59.0 °F 59.0 °F 100% 30.17 in 9.0 mi ENE 5.8 mph - N/A   Partly Cloudy
1:29 AM 60.8 °F 60.8 °F 100% 30.17 in 9.0 mi ENE 5.8 mph - N/A   Scattered Clouds
1:42 AM 60.8 °F 60.8 °F 100% 30.17 in 9.0 mi ENE 5.8 mph - N/A   Mostly Cloudy
1:44 AM 60.8 °F 60.8 °F 100% 30.17 in 9.0 mi ENE 5.8 mph - N/A   Mostly Cloudy
1:54 AM 60.8 °F 60.8 °F 100% 30.17 in 9.0 mi ENE 6.9 mph - N/A   Mostly Cloudy
2:00 AM 60.8 °F 60.8 °F 100% 30.17 in 9.0 mi ENE 4.6 mph - N/A   Mostly Cloudy
2:07 AM 60.8 °F 60.8 °F 100% 30.17 in 9.0 mi ENE 5.8 mph - N/A   Overcast
2:10 AM 60.8 °F 60.8 °F 100% 30.17 in 9.0 mi ENE 5.8 mph - N/A   Overcast
2:43 AM 62.6 °F 62.6 °F 100% 30.17 in 10.0 mi East 6.9 mph - N/A   Overcast
2:55 AM 62.4 °F 62.1 °F 99% 30.17 in 10.0 mi East 8.1 mph - N/A   Overcast
3:07 AM 62.6 °F 62.6 °F 100% 30.16 in 10.0 mi East 8.1 mph - N/A   Overcast
3:16 AM 62.6 °F 62.6 °F 100% 30.17 in 10.0 mi East 6.9 mph - N/A   Overcast
3:19 AM 62.6 °F 62.6 °F 100% 30.17 in 10.0 mi ENE 5.8 mph - N/A   Overcast
3:21 AM 62.6 °F 62.6 °F 100% 30.17 in 10.0 mi ENE 4.6 mph - N/A   Overcast
3:38 AM 62.6 °F 62.6 °F 100% 30.17 in 10.0 mi ENE 5.8 mph - N/A   Overcast
3:48 AM 62.6 °F 62.6 °F 100% 30.17 in 10.0 mi ENE 5.8 mph - N/A   Overcast
3:51 AM 62.6 °F 62.6 °F 100% 30.17 in 10.0 mi ENE 6.9 mph - N/A   Overcast
3:55 AM 62.1 °F 61.9 °F 99% 30.18 in 10.0 mi ENE 8.1 mph - N/A   Overcast
4:05 AM 62.6 °F 62.6 °F 100% 30.18 in 10.0 mi ENE 5.8 mph - N/A   Overcast
4:55 AM 61.7 °F 61.3 °F 99% 30.18 in 10.0 mi ENE 6.9 mph - N/A   Overcast
5:55 AM 61.5 °F 61.2 °F 99% 30.18 in 10.0 mi East 6.9 mph - N/A   Overcast
6:30 AM 60.8 °F 60.8 °F 100% 30.20 in 10.0 mi NE 5.8 mph - N/A   Overcast
6:55 AM 61.3 °F 61.0 °F 99% 30.20 in 10.0 mi ENE 6.9 mph - N/A   Overcast
7:06 AM 60.8 °F 60.8 °F 100% 30.20 in 10.0 mi East 8.1 mph - N/A   Overcast
7:55 AM 61.2 °F 60.8 °F 99% 30.23 in 10.0 mi ENE 6.9 mph - N/A   Overcast
8:09 AM 60.8 °F 60.8 °F 100% 30.24 in 10.0 mi East 8.1 mph - N/A   Overcast
8:17 AM 60.8 °F 60.8 °F 100% 30.24 in 10.0 mi East 6.9 mph - N/A   Light Drizzle
8:26 AM 60.8 °F 60.8 °F 100% 30.25 in 10.0 mi East 9.2 mph - N/A   Overcast
8:28 AM 60.8 °F 60.8 °F 100% 30.25 in 10.0 mi East 6.9 mph - N/A   Overcast
8:55 AM 61.2 °F 60.8 °F 99% 30.24 in 10.0 mi ENE 5.8 mph - 0.00 in   Light Drizzle
9:14 AM 60.8 °F 60.8 °F 100% 30.24 in 10.0 mi East 6.9 mph - N/A   Light Drizzle
9:21 AM 60.8 °F 60.8 °F 100% 30.24 in 10.0 mi East 8.1 mph - N/A   Overcast
9:50 AM 62.6 °F 60.8 °F 94% 30.25 in 10.0 mi East 9.2 mph - N/A   Overcast
9:55 AM 61.7 °F 61.3 °F 99% 30.25 in 10.0 mi East 8.1 mph - 0.00 in   Overcast
10:26 AM 62.6 °F 60.8 °F 94% 30.25 in 10.0 mi East 5.8 mph - N/A   Overcast
10:38 AM 62.6 °F 60.8 °F 94% 30.25 in 10.0 mi East 6.9 mph - N/A   Overcast
10:44 AM 62.6 °F 62.6 °F 100% 30.25 in 10.0 mi East 6.9 mph - N/A   Light Drizzle
10:55 AM 62.4 °F 62.1 °F 99% 30.25 in 10.0 mi East 9.2 mph - 0.00 in   Light Drizzle
10:59 AM 62.6 °F 62.6 °F 100% 30.24 in 10.0 mi East 6.9 mph - N/A   Overcast
11:23 AM 62.6 °F 62.6 °F 100% 30.24 in 10.0 mi East 8.1 mph - N/A   Overcast
11:48 AM 62.6 °F 62.6 °F 100% 30.22 in 10.0 mi ESE 10.4 mph - N/A   Overcast
11:55 AM 63.3 °F 61.9 °F 95% 30.22 in 10.0 mi ESE 9.2 mph - 0.00 in   Overcast
11:59 AM 62.6 °F 62.6 °F 100% 30.22 in 10.0 mi East 10.4 mph - N/A   Light Drizzle
12:07 PM 62.6 °F 62.6 °F 100% 30.21 in 4.0 mi ESE 12.7 mph - N/A Rain Light Rain
12:13 PM 62.6 °F 62.6 °F 100% 30.21 in 5.0 mi East 10.4 mph - N/A Rain Light Rain
12:17 PM 62.6 °F 62.6 °F 100% 30.21 in 9.0 mi East 10.4 mph - N/A   Overcast
12:55 PM 62.6 °F 62.6 °F 100% 30.24 in 3.0 mi ESE 10.4 mph - N/A Rain Light Rain
1:11 PM 62.6 °F 62.6 °F 100% 30.18 in 5.0 mi East 9.2 mph - N/A   Overcast
1:25 PM 62.6 °F 62.6 °F 100% 30.17 in 10.0 mi East 9.2 mph - N/A   Overcast
1:29 PM 62.6 °F 62.6 °F 100% 30.17 in 9.0 mi ESE 12.7 mph - N/A   Overcast
1:44 PM 62.6 °F 62.6 °F 100% 30.17 in 1.5 mi SE 11.5 mph - N/A Rain Light Rain
1:55 PM 62.6 °F 62.4 °F 99% 30.16 in 1.5 mi ESE 10.4 mph - 0.02 in Rain Light Rain
2:10 PM 62.6 °F 62.6 °F 100% 30.14 in 1.8 mi SE 9.2 mph - N/A Rain Light Rain
2:12 PM 62.6 °F 62.6 °F 100% 30.14 in 1.8 mi SE 10.4 mph - N/A   Drizzle
2:46 PM 62.6 °F 62.6 °F 100% 30.15 in 1.8 mi ESE 6.9 mph - N/A Rain Light Rain
2:48 PM 62.6 °F 62.6 °F 100% 30.15 in 1.5 mi ESE 8.1 mph - N/A Rain Rain
2:55 PM 62.1 °F 61.9 °F 99% 30.14 in 1.8 mi ESE 8.1 mph - 0.13 in Rain Light Rain
3:12 PM 62.6 °F 62.6 °F 100% 30.13 in 1.8 mi ESE 6.9 mph - N/A Rain Light Rain
3:28 PM 62.6 °F 62.6 °F 100% 30.13 in 3.0 mi ESE 6.9 mph - N/A   Light Drizzle
3:29 PM 62.6 °F 62.6 °F 100% 30.13 in 2.0 mi ESE 5.8 mph - N/A   Light Drizzle
3:48 PM 62.6 °F 62.6 °F 100% 30.13 in 2.0 mi East 8.1 mph - N/A Rain Light Rain
3:53 PM 62.6 °F 62.6 °F 100% 30.12 in 3.0 mi East 6.9 mph - N/A Rain Light Rain
3:55 PM 62.2 °F 62.1 °F 99% 30.12 in 4.0 mi East 8.1 mph - 0.10 in Rain Light Rain
3:56 PM 62.6 °F 62.6 °F 100% 30.12 in 5.0 mi East 9.2 mph - N/A Rain Light Rain
3:58 PM 62.6 °F 62.6 °F 100% 30.13 in 7.0 mi ESE 9.2 mph - N/A   Overcast
4:28 PM 62.6 °F 62.6 °F 100% 30.12 in 9.0 mi East 10.4 mph - N/A   Overcast
4:50 PM 62.6 °F 62.6 °F 100% 30.12 in 10.0 mi ESE 10.4 mph - N/A   Overcast
4:55 PM 62.4 °F 62.4 °F 100% 30.12 in 10.0 mi ESE 8.1 mph - 0.01 in   Overcast
5:04 PM 62.6 °F 62.6 °F 100% 30.11 in 10.0 mi East 8.1 mph - N/A   Overcast
5:48 PM 62.6 °F 62.6 °F 100% 30.12 in 10.0 mi East 9.2 mph - N/A   Overcast
5:55 PM 62.2 °F 61.9 °F 99% 30.12 in 10.0 mi East 8.1 mph - N/A   Overcast
6:12 PM 62.6 °F 62.6 °F 100% 30.12 in 10.0 mi East 8.1 mph - N/A   Overcast
6:41 PM 62.6 °F 62.6 °F 100% 30.12 in 10.0 mi East 9.2 mph - N/A   Overcast
6:43 PM 62.6 °F 62.6 °F 100% 30.12 in 10.0 mi East 9.2 mph - N/A   Overcast
6:46 PM 62.6 °F 62.6 °F 100% 30.12 in 10.0 mi East 10.4 mph - N/A   Overcast
6:48 PM 62.6 °F 62.6 °F 100% 30.12 in 10.0 mi East 9.2 mph - N/A   Overcast
6:51 PM 62.6 °F 62.6 °F 100% 30.12 in 10.0 mi East 12.7 mph - N/A   Overcast
6:55 PM 62.4 °F 62.4 °F 100% 30.13 in 10.0 mi East 10.4 mph - N/A   Overcast
7:00 PM 62.6 °F 62.6 °F 100% 30.13 in 10.0 mi East 9.2 mph - N/A   Overcast
7:01 PM 62.6 °F 62.6 °F 100% 30.13 in 10.0 mi East 9.2 mph - N/A   Overcast
7:14 PM 62.6 °F 62.6 °F 100% 30.12 in 10.0 mi East 10.4 mph - N/A   Overcast
7:16 PM 62.6 °F 62.6 °F 100% 30.12 in 10.0 mi East 9.2 mph - N/A   Overcast
7:21 PM 62.6 °F 62.6 °F 100% 30.12 in 10.0 mi East 9.2 mph - N/A   Overcast
7:24 PM 62.6 °F 62.6 °F 100% 30.13 in 10.0 mi East 8.1 mph - N/A   Overcast
7:41 PM 62.6 °F 62.6 °F 100% 30.14 in 10.0 mi East 8.1 mph - N/A   Overcast
7:47 PM 62.6 °F 62.6 °F 100% 30.14 in 10.0 mi East 9.2 mph - N/A   Overcast
7:55 PM 62.6 °F 62.2 °F 99% 30.14 in 10.0 mi East 11.5 mph - N/A   Overcast
8:55 PM 62.6 °F 60.6 °F 93% 30.13 in 10.0 mi ESE 10.4 mph - N/A   Overcast
9:28 PM 62.6 °F 60.8 °F 94% 30.12 in 10.0 mi ESE 10.4 mph - N/A   Overcast
9:31 PM 62.6 °F 60.8 °F 94% 30.12 in 10.0 mi ESE 12.7 mph - N/A   Overcast
9:37 PM 62.6 °F 60.8 °F 94% 30.12 in 10.0 mi ESE 12.7 mph - N/A   Overcast
9:42 PM 62.6 °F 60.8 °F 94% 30.12 in 10.0 mi ESE 13.8 mph - N/A   Overcast
9:55 PM 62.1 °F 59.7 °F 92% 30.12 in 10.0 mi ESE 11.5 mph - N/A   Overcast
9:57 PM 62.6 °F 59.0 °F 88% 30.11 in 10.0 mi ESE 13.8 mph - N/A   Overcast
10:01 PM 62.6 °F 59.0 °F 88% 30.11 in 10.0 mi ESE 15.0 mph - N/A   Overcast
10:05 PM 62.6 °F 59.0 °F 88% 30.11 in 10.0 mi ESE 15.0 mph - N/A   Overcast
10:14 PM 62.6 °F 59.0 °F 88% 30.10 in 10.0 mi ESE 16.1 mph - N/A   Overcast
10:17 PM 62.6 °F 59.0 °F 88% 30.10 in 10.0 mi ESE 15.0 mph - N/A   Overcast
10:26 PM 62.6 °F 59.0 °F 88% 30.09 in 10.0 mi ESE 13.8 mph - N/A   Overcast
10:44 PM 62.6 °F 59.0 °F 88% 30.08 in 10.0 mi ESE 16.1 mph - N/A   Overcast
10:45 PM 62.6 °F 59.0 °F 88% 30.09 in 10.0 mi ESE 13.8 mph - N/A   Overcast
10:55 PM 61.9 °F 58.8 °F 90% 30.09 in 10.0 mi ESE 15.0 mph - N/A   Overcast
11:02 PM 62.6 °F 59.0 °F 88% 30.09 in 10.0 mi ESE 13.8 mph - N/A   Overcast
11:41 PM 62.6 °F 59.0 °F 88% 30.07 in 10.0 mi SE 13.8 mph - N/A   Overcast
11:55 PM 61.7 °F 58.3 °F 89% 30.07 in 10.0 mi SE 12.7 mph - N/A   Overcast